Southend-On-Sea, United Kingdom

7:24 AM GMT on January 21, 2018 (GMT +0000)
Southend

Weather History for EGMC - August, 2013

Change the Weather History Date:

Tuesday, August 27, 2013

  Actual Average Record
Temperature  
Mean Temperature 62 °F -  
Max Temperature 73 °F 66 °F 75 °F (2016)
Min Temperature 51 °F 52 °F 44 °F (1998)
Degree Days  
Heating Degree Days 3    
Growing Degree Days 12 (Base 50)    
Moisture  
Dew Point 53 °F    
Average Humidity 73    
Maximum Humidity 100    
Minimum Humidity 31    
Precipitation  
Precipitation 0.00 in - - ()
Sea Level Pressure  
Sea Level Pressure 30.06 in    
Wind  
Wind Speed 5 mph ()    
Max Wind Speed 9 mph    
Max Gust Speed -    
Visibility 4.1 miles    
Events Fog    
Averages and records for this station are not official NWS values.
T = Trace of Precipitation, MM = Missing Value Source: Averaged Metar Reports

Daily Weather History Graph

Daily Weather History Graph

Search for Another Location

Airport or City:

Trip Planner

Search our weather history database for the weather conditions in past years. The results will help you decide how hot, cold, wet, or windy it might be!

Date:

Astronomy

Aug. 27, 2013 Rise Set
Actual Time 6:01 AM BST 7:54 PM BST
Civil Twilight 5:26 AM BST 8:29 PM BST
Nautical Twilight 4:41 AM BST 9:13 PM BST
Astronomical Twilight 3:51 AM BST 10:03 PM BST
Moon 10:43 PM BST (8/27) 1:38 PM BST (8/27)
Length of Visible Light 15h 03m
Length of Day
13h 52m
Waning Gibbous, 59% of the Moon is Illuminated
Aug 27
Waning Gibbous
Aug 28
Last Quarter
Sep 5
New
Sep 12
First Quarter
Sep 19
Full

Hourly Weather History & Observations

Time (BST) Temp. Dew Point Humidity Pressure Visibility Wind Dir Wind Speed Gust Speed Precip Events Conditions
12:50 AM 55.4 °F 53.6 °F 94% 30.06 in - NNW 4.6 mph - N/A   Clear
1:50 AM 55.4 °F 53.6 °F 94% 30.06 in - NNW 4.6 mph - N/A   Clear
2:50 AM 55.4 °F 55.4 °F 100% 30.06 in 0.2 mi NNW 4.6 mph - N/A Fog Fog
3:50 AM 55.4 °F 55.4 °F 100% 30.06 in 0.2 mi NNW 4.6 mph - N/A Fog Fog
4:50 AM 55.4 °F 55.4 °F 100% 30.06 in 0.2 mi NNW 4.6 mph - N/A Fog Fog
5:20 AM 55.4 °F 55.4 °F 100% 30.06 in 0.3 mi NNW 4.6 mph - N/A Fog Fog
5:50 AM 55.4 °F 55.4 °F 100% 30.06 in 0.2 mi North 5.8 mph - N/A Fog Fog
6:20 AM 55.4 °F 53.6 °F 94% 30.06 in 0.2 mi NNW 3.5 mph - N/A Fog Fog
6:50 AM 53.6 °F 53.6 °F 100% 30.06 in 0.2 mi NNW 5.8 mph - N/A Fog Fog
7:20 AM 53.6 °F 53.6 °F 100% 30.06 in 0.1 mi NW 6.9 mph - N/A Fog Fog
7:50 AM 51.8 °F 51.8 °F 100% 30.06 in 0.2 mi NW 5.8 mph - N/A Fog Fog
8:20 AM 53.6 °F 53.6 °F 100% 30.06 in 1.2 mi NNW 6.9 mph - N/A   Mostly Cloudy
8:50 AM 55.4 °F 55.4 °F 100% 30.06 in 2.2 mi NNW 5.8 mph - N/A   Mostly Cloudy
9:20 AM 55.4 °F 55.4 °F 100% 30.06 in 3.7 mi NW 5.8 mph - N/A   Mostly Cloudy
9:50 AM 57.2 °F 55.4 °F 94% 30.06 in 5.6 mi NNW 9.2 mph - N/A   Partly Cloudy
10:20 AM 60.8 °F 53.6 °F 77% 30.06 in 6.2 mi NNW 5.8 mph - N/A   Partly Cloudy
10:50 AM 64.4 °F 55.4 °F 73% 30.06 in - NNW 6.9 mph - N/A   Clear
11:20 AM 66.2 °F 55.4 °F 68% 30.06 in 6.2 mi North 6.9 mph - N/A   Partly Cloudy
11:50 AM 69.8 °F 53.6 °F 56% 30.06 in 6.2 mi NNW 8.1 mph - N/A   Partly Cloudy
12:20 PM 69.8 °F 53.6 °F 56% 30.06 in 6.2 mi North 6.9 mph - N/A   Partly Cloudy
12:50 PM 69.8 °F 46.4 °F 43% 30.04 in 6.2 mi North 9.2 mph - N/A   Partly Cloudy
1:20 PM 71.6 °F 48.2 °F 43% 30.04 in 6.2 mi North 8.1 mph - N/A   Partly Cloudy
1:50 PM 73.4 °F 48.2 °F 41% 30.04 in 6.2 mi North 6.9 mph - N/A   Partly Cloudy
2:20 PM 71.6 °F 44.6 °F 38% 30.04 in 6.2 mi NE 6.9 mph - N/A   Partly Cloudy
2:50 PM 71.6 °F 41.0 °F 33% 30.04 in 6.2 mi NNW 5.8 mph - N/A   Partly Cloudy
3:20 PM 73.4 °F 42.8 °F 33% 30.04 in 6.2 mi Variable 6.9 mph - N/A   Partly Cloudy
3:50 PM 73.4 °F 41.0 °F 31% 30.04 in 6.2 mi North 8.1 mph - N/A   Partly Cloudy
4:20 PM 73.4 °F 41.0 °F 31% 30.04 in 6.2 mi Variable 5.8 mph - N/A   Partly Cloudy
4:50 PM 73.4 °F 41.0 °F 31% 30.04 in 6.2 mi NNE 4.6 mph - N/A   Partly Cloudy
5:20 PM 71.6 °F 50.0 °F 46% 30.04 in 6.2 mi SSE 6.9 mph - N/A   Partly Cloudy
5:50 PM 71.6 °F 50.0 °F 46% 30.04 in - SSE 6.9 mph - N/A   Clear
6:20 PM 71.6 °F 50.0 °F 46% 30.04 in - SE 5.8 mph - N/A   Clear
6:50 PM 71.6 °F 48.2 °F 43% 30.04 in - South 3.5 mph - N/A   Clear
7:20 PM 68.0 °F 57.2 °F 68% 30.04 in - East 6.9 mph - N/A   Clear
7:50 PM 64.4 °F 59.0 °F 83% 30.06 in - ENE 5.8 mph - N/A   Clear
8:20 PM 60.8 °F 57.2 °F 88% 30.06 in - NE 3.5 mph - N/A   Clear
8:50 PM 62.6 °F 59.0 °F 88% 30.09 in - NNW 4.6 mph - N/A   Clear
9:20 PM 62.6 °F 59.0 °F 88% 30.09 in - North 3.5 mph - N/A   Clear
9:50 PM 62.6 °F 59.0 °F 88% 30.09 in 6.2 mi NE 3.5 mph - N/A   Mostly Cloudy
10:20 PM 62.6 °F 59.0 °F 88% 30.09 in 6.2 mi NE 2.3 mph - N/A   Mostly Cloudy
10:50 PM 60.8 °F 57.2 °F 88% 30.09 in 6.2 mi Calm Calm - N/A   Partly Cloudy
11:20 PM 60.8 °F 57.2 °F 88% 30.09 in 6.2 mi Calm Calm - N/A   Partly Cloudy
11:50 PM 59.0 °F 53.6 °F 82% 30.12 in - Calm Calm - N/A   Clear